| time (UTC) | temp F | wind direction | speed MPH | gust MPH | rain 1hr in | rain 24hr in | rain mn in | humidity % | barometer mb |
| 20260509062517 | 62 | 22 | 0.0 | 0.0 | 0.00 | 0.00 | 0.00 | 16 | 1013.0 |
| 20260509061540 | 63 | 23 | 0.0 | 0.0 | 0.00 | 0.00 | 0.00 | 16 | 1013.0 |
| 20260509060601 | 63 | 19 | 0.0 | 0.0 | 0.00 | 0.00 | 0.00 | 16 | 1013.0 |
| 20260509055625 | 63 | 20 | 0.0 | 0.0 | 0.00 | 0.00 | 0.00 | 16 | 1013.0 |
| 20260509054645 | 63 | 20 | 0.0 | 0.0 | 0.00 | 0.00 | 0.00 | 16 | 1013.0 |
| 20260509053707 | 63 | 22 | 0.0 | 0.0 | 0.00 | 0.00 | 0.00 | 16 | 1013.0 |
| 20260509052730 | 63 | 20 | 0.0 | 0.0 | 0.00 | 0.00 | 0.00 | 16 | 1013.0 |
| 20260509051752 | 63 | 23 | 0.0 | 0.0 | 0.00 | 0.00 | 0.00 | 16 | 1013.0 |
| 20260509050814 | 63 | 22 | 0.0 | 0.0 | 0.00 | 0.00 | 0.00 | 16 | 1013.0 |
| 20260509045836 | 63 | 21 | 0.0 | 0.0 | 0.00 | 0.00 | 0.00 | 16 | 1013.0 |
| 20260509043920 | 62 | 22 | 0.0 | 0.0 | 0.00 | 0.00 | 0.00 | 16 | 1013.0 |
| 20260509042943 | 62 | 22 | 0.0 | 0.0 | 0.00 | 0.00 | 0.00 | 16 | 1013.0 |
| 20260509042005 | 62 | 24 | 0.0 | 0.0 | 0.00 | 0.00 | 0.00 | 18 | 1013.0 |
| 20260509041028 | 62 | 26 | 0.0 | 0.0 | 0.00 | 0.00 | 0.00 | 20 | 1013.0 |
| 20260509040049 | 62 | 24 | 0.0 | 0.0 | 0.00 | 0.00 | 0.00 | 16 | 1013.0 |
| 20260509035111 | 62 | 21 | 0.0 | 0.0 | 0.00 | 0.00 | 0.00 | 16 | 1013.0 |
| 20260509034133 | 62 | 23 | 0.0 | 0.0 | 0.00 | 0.00 | 0.00 | 16 | 1013.0 |
| 20260509033155 | 62 | 22 | 0.0 | 0.0 | 0.00 | 0.00 | 0.00 | 16 | 1013.0 |
| 20260509032218 | 62 | 22 | 0.0 | 0.0 | 0.00 | 0.00 | 0.00 | 16 | 1013.0 |
| 20260509031242 | 62 | 21 | 0.0 | 0.0 | 0.00 | 0.00 | 0.00 | 16 | 1013.0 |
| 20260509030302 | 62 | 21 | 0.0 | 0.0 | 0.00 | 0.00 | 0.00 | 16 | 1013.0 |
| 20260509025324 | 62 | 22 | 0.0 | 0.0 | 0.00 | 0.00 | 0.00 | 16 | 1013.0 |
| 20260509024346 | 62 | 24 | 0.0 | 0.0 | 0.00 | 0.00 | 0.00 | 16 | 1013.0 |
| 20260509023408 | 62 | 24 | 0.0 | 0.0 | 0.00 | 0.00 | 0.00 | 16 | 1013.0 |
| 20260509022430 | 62 | 23 | 0.0 | 0.0 | 0.00 | 0.00 | 0.00 | 18 | 1013.0 |
| 20260509021454 | 62 | 25 | 0.0 | 0.0 | 0.00 | 0.00 | 0.00 | 18 | 1013.0 |
| 20260509020515 | 62 | 24 | 0.0 | 0.0 | 0.00 | 0.00 | 0.00 | 18 | 1013.0 |
| 20260509015537 | 62 | 24 | 0.0 | 0.0 | 0.00 | 0.00 | 0.00 | 18 | 1014.0 |
| 20260509014559 | 62 | 23 | 0.0 | 0.0 | 0.00 | 0.00 | 0.00 | 18 | 1014.0 |
| 20260509013621 | 62 | 26 | 0.0 | 0.0 | 0.00 | 0.00 | 0.00 | 18 | 1014.0 |
| 20260509012643 | 62 | 26 | 0.0 | 0.0 | 0.00 | 0.00 | 0.00 | 20 | 1014.0 |
| 20260509011705 | 63 | 24 | 0.0 | 0.0 | 0.00 | 0.00 | 0.00 | 16 | 1014.0 |
| 20260509010728 | 63 | 25 | 0.0 | 0.0 | 0.00 | 0.00 | 0.00 | 18 | 1014.0 |
| 20260509004812 | 63 | 23 | 0.0 | 0.0 | 0.00 | 0.00 | 0.00 | 18 | 1014.0 |
| 20260509003834 | 63 | 20 | 0.0 | 0.0 | 0.00 | 0.00 | 0.00 | 16 | 1014.0 |
| 20260509002856 | 63 | 21 | 0.0 | 0.0 | 0.00 | 0.00 | 0.00 | 16 | 1014.0 |
| 20260509001918 | 64 | 20 | 0.0 | 0.0 | 0.00 | 0.00 | 0.00 | 16 | 1014.0 |
| 20260509000940 | 64 | 16 | 0.0 | 0.0 | 0.00 | 0.00 | 0.00 | 13 | 1014.0 |
| 20260509000003 | 64 | 15 | 0.0 | 0.0 | 0.00 | 0.00 | 0.00 | 13 | 1014.0 |
| 20260508235025 | 64 | 17 | 0.0 | 0.0 | 0.00 | 0.00 | 0.00 | 13 | 1014.0 |
| 20260508234047 | 64 | 15 | 0.0 | 0.0 | 0.00 | 0.00 | 0.00 | 13 | 1014.0 |
| 20260508233111 | 64 | 16 | 0.0 | 0.0 | 0.00 | 0.00 | 0.00 | 13 | 1014.0 |
| 20260508232131 | 64 | 16 | 0.0 | 0.0 | 0.00 | 0.00 | 0.00 | 13 | 1014.0 |
| 20260508231153 | 64 | 16 | 0.0 | 0.0 | 0.00 | 0.00 | 0.00 | 13 | 1014.0 |
| 20260508230218 | 64 | 18 | 0.0 | 0.0 | 0.00 | 0.00 | 0.00 | 15 | 1014.0 |
| 20260508224301 | 64 | 16 | 0.0 | 0.0 | 0.00 | 0.00 | 0.00 | 13 | 1014.0 |
| 20260508223325 | 64 | 18 | 0.0 | 0.0 | 0.00 | 0.00 | 0.00 | 13 | 1015.0 |
| 20260508222344 | 64 | 18 | 0.0 | 0.0 | 0.00 | 0.00 | 0.00 | 13 | 1015.0 |
| 20260508221406 | 64 | 16 | 0.0 | 0.0 | 0.00 | 0.00 | 0.00 | 13 | 1015.0 |
| 20260508220430 | 64 | 18 | 0.0 | 0.0 | 0.00 | 0.00 | 0.00 | 13 | 1014.0 |
| 20260508215451 | 64 | 17 | 0.0 | 0.0 | 0.00 | 0.00 | 0.00 | 13 | 1014.0 |
| 20260508214516 | 64 | 15 | 0.0 | 0.0 | 0.00 | 0.00 | 0.00 | 13 | 1014.0 |
| 20260508213535 | 63 | 18 | 0.0 | 0.0 | 0.00 | 0.00 | 0.00 | 13 | 1015.0 |
| 20260508212557 | 63 | 17 | 0.0 | 0.0 | 0.00 | 0.00 | 0.00 | 13 | 1015.0 |
| 20260508211619 | 63 | 18 | 0.0 | 0.0 | 0.00 | 0.00 | 0.00 | 13 | 1015.0 |
| 20260508210641 | 63 | 16 | 0.0 | 0.0 | 0.00 | 0.00 | 0.00 | 13 | 1015.0 |
| 20260508205703 | 63 | 18 | 0.0 | 0.0 | 0.00 | 0.00 | 0.00 | 13 | 1015.0 |
| 20260508204728 | 63 | 16 | 0.0 | 0.0 | 0.00 | 0.00 | 0.00 | 13 | 1015.0 |
| 20260508203748 | 63 | 16 | 0.0 | 0.0 | 0.00 | 0.00 | 0.00 | 13 | 1015.0 |
| 20260508202811 | 63 | 15 | 0.0 | 0.0 | 0.00 | 0.00 | 0.00 | 13 | 1014.0 |
| 20260508201835 | 63 | 16 | 0.0 | 0.0 | 0.00 | 0.00 | 0.00 | 13 | 1014.0 |
| 20260508200856 | 63 | 16 | 0.0 | 0.0 | 0.00 | 0.00 | 0.00 | 13 | 1014.0 |
| 20260508195918 | 64 | 13 | 0.0 | 0.0 | 0.00 | 0.00 | 0.00 | 12 | 1014.0 |
| 20260508194938 | 64 | 13 | 0.0 | 0.0 | 0.00 | 0.00 | 0.00 | 12 | 1014.0 |
| 20260508194003 | 64 | 13 | 0.0 | 0.0 | 0.00 | 0.00 | 0.00 | 12 | 1014.0 |
| 20260508192046 | 64 | 9 | 0.0 | 0.0 | 0.00 | 0.00 | 0.00 | 10 | 1014.0 |
| 20260508190131 | 64 | 9 | 0.0 | 0.0 | 0.00 | 0.00 | 0.00 | 8 | 1013.0 |
| 20260508185153 | 64 | 10 | 0.0 | 0.0 | 0.00 | 0.00 | 0.00 | 8 | 1013.0 |
| 20260508184216 | 64 | 7 | 0.0 | 0.0 | 0.00 | 0.00 | 0.00 | 8 | 1013.0 |
| 20260508183238 | 64 | 10 | 0.0 | 0.0 | 0.00 | 0.00 | 0.00 | 10 | 1013.0 |
| 20260508182258 | 64 | 9 | 0.0 | 0.0 | 0.00 | 0.00 | 0.00 | 8 | 1013.0 |
| 20260508181322 | 64 | 9 | 0.0 | 0.0 | 0.00 | 0.00 | 0.00 | 10 | 1013.0 |
| 20260508180344 | 64 | 8 | 0.0 | 0.0 | 0.00 | 0.00 | 0.00 | 10 | 1013.0 |
| 20260508175404 | 65 | 10 | 0.0 | 0.0 | 0.00 | 0.00 | 0.00 | 10 | 1013.0 |
| 20260508172511 | 65 | 8 | 0.0 | 0.0 | 0.00 | 0.00 | 0.00 | 8 | 1013.0 |
| 20260508171533 | 65 | 6 | 0.0 | 0.0 | 0.00 | 0.00 | 0.00 | 8 | 1013.0 |
| 20260508170557 | 65 | 6 | 0.0 | 0.0 | 0.00 | 0.00 | 0.00 | 8 | 1013.0 |
| 20260508165618 | 66 | 8 | 0.0 | 0.0 | 0.00 | 0.00 | 0.00 | 8 | 1013.0 |
| 20260508163705 | 66 | 5 | 0.0 | 0.0 | 0.00 | 0.00 | 0.00 | 8 | 1013.0 |
| 20260508162726 | 66 | 8 | 0.0 | 0.0 | 0.00 | 0.00 | 0.00 | 8 | 1013.0 |
| 20260508161746 | 66 | 5 | 0.0 | 0.0 | 0.00 | 0.00 | 0.00 | 8 | 1013.0 |
| 20260508160809 | 67 | 5 | 0.0 | 0.0 | 0.00 | 0.00 | 0.00 | 8 | 1013.0 |
| 20260508155834 | 67 | 6 | 0.0 | 0.0 | 0.00 | 0.00 | 0.00 | 8 | 1013.0 |
| 20260508153917 | 66 | 7 | 0.0 | 0.0 | 0.00 | 0.00 | 0.00 | 8 | 1013.0 |
| 20260508151020 | 66 | 7 | 0.0 | 0.0 | 0.00 | 0.00 | 0.00 | 8 | 1013.0 |
| 20260508150045 | 66 | 8 | 0.0 | 0.0 | 0.00 | 0.00 | 0.00 | 8 | 1013.0 |
| 20260508145105 | 66 | 7 | 0.0 | 0.0 | 0.00 | 0.00 | 0.00 | 10 | 1013.0 |
| 20260508143151 | 66 | 8 | 0.0 | 0.0 | 0.00 | 0.00 | 0.00 | 10 | 1013.0 |
| 20260508142213 | 67 | 7 | 0.0 | 0.0 | 0.00 | 0.00 | 0.00 | 8 | 1013.0 |
| 20260508141238 | 67 | 8 | 0.0 | 0.0 | 0.00 | 0.00 | 0.00 | 8 | 1013.0 |
| 20260508140255 | 67 | 5 | 0.0 | 0.0 | 0.00 | 0.00 | 0.00 | 8 | 1013.0 |
| 20260508135318 | 68 | 6 | 0.0 | 0.0 | 0.00 | 0.00 | 0.00 | 8 | 1013.0 |
| 20260508134340 | 68 | 7 | 0.0 | 0.0 | 0.00 | 0.00 | 0.00 | 8 | 1013.0 |
| 20260508132424 | 66 | 8 | 0.0 | 0.0 | 0.00 | 0.00 | 0.00 | 8 | 1013.0 |
| 20260508131451 | 67 | 4 | 0.0 | 0.0 | 0.00 | 0.00 | 0.00 | 8 | 1013.0 |
| 20260508130511 | 67 | 5 | 0.0 | 0.0 | 0.00 | 0.00 | 0.00 | 8 | 1014.0 |
| 20260508125533 | 69 | 4 | 0.0 | 0.0 | 0.00 | 0.00 | 0.00 | 7 | 1013.0 |
| 20260508124554 | 69 | 4 | 0.0 | 0.0 | 0.00 | 0.00 | 0.00 | 8 | 1013.0 |
| 20260508123615 | 69 | 6 | 0.0 | 0.0 | 0.00 | 0.00 | 0.00 | 8 | 1013.0 |
| 20260508122639 | 69 | 4 | 0.0 | 0.0 | 0.00 | 0.00 | 0.00 | 8 | 1013.0 |
| 20260508121659 | 68 | 6 | 0.0 | 0.0 | 0.00 | 0.00 | 0.00 | 8 | 1013.0 |
| 20260508120721 | 68 | 5 | 0.0 | 0.0 | 0.00 | 0.00 | 0.00 | 8 | 1013.0 |
| 20260508115743 | 68 | 5 | 0.0 | 0.0 | 0.00 | 0.00 | 0.00 | 8 | 1014.0 |
| 20260508114805 | 68 | 4 | 0.0 | 0.0 | 0.00 | 0.00 | 0.00 | 7 | 1014.0 |
| 20260508113829 | 67 | 5 | 0.0 | 0.0 | 0.00 | 0.00 | 0.00 | 8 | 1014.0 |
| 20260508112850 | 67 | 6 | 0.0 | 0.0 | 0.00 | 0.00 | 0.00 | 8 | 1013.0 |
| 20260508111913 | 67 | 4 | 0.0 | 0.0 | 0.00 | 0.00 | 0.00 | 8 | 1014.0 |
| 20260508110936 | 67 | 6 | 0.0 | 0.0 | 0.00 | 0.00 | 0.00 | 8 | 1013.0 |
| 20260508105958 | 67 | 5 | 0.0 | 0.0 | 0.00 | 0.00 | 0.00 | 8 | 1014.0 |
| 20260508104043 | 68 | 4 | 0.0 | 0.0 | 0.00 | 0.00 | 0.00 | 8 | 1013.0 |
| 20260508102127 | 68 | 7 | 0.0 | 0.0 | 0.00 | 0.00 | 0.00 | 8 | 1014.0 |
| 20260508101147 | 67 | 5 | 0.0 | 0.0 | 0.00 | 0.00 | 0.00 | 8 | 1014.0 |
| 20260508100211 | 67 | 8 | 0.0 | 0.0 | 0.00 | 0.00 | 0.00 | 8 | 1014.0 |
| 20260508095235 | 67 | 6 | 0.0 | 0.0 | 0.00 | 0.00 | 0.00 | 8 | 1014.0 |
| 20260508094253 | 68 | 6 | 0.0 | 0.0 | 0.00 | 0.00 | 0.00 | 8 | 1014.0 |
| 20260508093317 | 67 | 8 | 0.0 | 0.0 | 0.00 | 0.00 | 0.00 | 8 | 1014.0 |
| 20260508092340 | 66 | 7 | 0.0 | 0.0 | 0.00 | 0.00 | 0.00 | 8 | 1014.0 |
| 20260508091359 | 67 | 6 | 0.0 | 0.0 | 0.00 | 0.00 | 0.00 | 8 | 1014.0 |
| 20260508090422 | 68 | 7 | 0.0 | 0.0 | 0.00 | 0.00 | 0.00 | 8 | 1014.0 |
| 20260508085446 | 68 | 7 | 0.0 | 0.0 | 0.00 | 0.00 | 0.00 | 8 | 1014.0 |
| 20260508083528 | 65 | 9 | 0.0 | 0.0 | 0.00 | 0.00 | 0.00 | 10 | 1013.0 |
| 20260508082550 | 66 | 11 | 0.0 | 0.0 | 0.00 | 0.00 | 0.00 | 10 | 1013.0 |
| 20260508081615 | 66 | 9 | 0.0 | 0.0 | 0.00 | 0.00 | 0.00 | 10 | 1013.0 |
| 20260508080634 | 66 | 10 | 0.0 | 0.0 | 0.00 | 0.00 | 0.00 | 10 | 1013.0 |
| 20260508074719 | 67 | 9 | 0.0 | 0.0 | 0.00 | 0.00 | 0.00 | 10 | 1013.0 |
| 20260508073743 | 67 | 10 | 0.0 | 0.0 | 0.00 | 0.00 | 0.00 | 10 | 1013.0 |
| 20260508072803 | 68 | 9 | 0.0 | 0.0 | 0.00 | 0.00 | 0.00 | 10 | 1013.0 |
| 20260508071825 | 67 | 9 | 0.0 | 0.0 | 0.00 | 0.00 | 0.00 | 10 | 1013.0 |
| 20260508070847 | 66 | 9 | 0.0 | 0.0 | 0.00 | 0.00 | 0.00 | 10 | 1012.0 |
| 20260508065909 | 65 | 12 | 0.0 | 0.0 | 0.00 | 0.00 | 0.00 | 10 | 1012.0 |
| 20260508064932 | 64 | 12 | 0.0 | 0.0 | 0.00 | 0.00 | 0.00 | 10 | 1012.0 |
| 20260508063954 | 63 | 13 | 0.0 | 0.0 | 0.00 | 0.00 | 0.00 | 10 | 1012.0 |